| time (UTC) | temp C | wind direction | speed KPH | gust KPH | rain 1hr cm | rain 24hr cm | rain mn cm | humidity % | barometer mb |
| 20260905072022 | 16 | 217 | 0.0 | 0.0 | 0.00 | 0.00 | 0.00 | 89 | 1007.8 |
| 20260905071522 | 15 | 217 | 0.0 | 0.0 | 0.00 | 0.00 | 0.00 | 88 | 1007.8 |
| 20260905071021 | 16 | 217 | 0.0 | 0.0 | 0.00 | 0.00 | 0.00 | 88 | 1007.9 |
| 20260905070520 | 16 | 217 | 0.0 | 0.0 | 0.00 | 0.00 | 0.00 | 87 | 1008.0 |
| 20260905070019 | 16 | 197 | 0.0 | 0.0 | 0.00 | 0.00 | 0.00 | 86 | 1008.2 |
| 20260905065503 | 16 | 196 | 0.0 | 0.0 | 0.00 | 0.00 | 0.00 | 86 | 1008.0 |
| 20260905065002 | 16 | 197 | 0.0 | 0.0 | 0.00 | 0.00 | 0.00 | 86 | 1007.9 |
| 20260905064502 | 16 | 197 | 0.0 | 0.0 | 0.00 | 0.00 | 0.00 | 86 | 1007.9 |
| 20260905064100 | 16 | 195 | 0.0 | 0.0 | 0.00 | 0.00 | 0.00 | 85 | 1007.9 |
| 20260905063559 | 16 | 197 | 0.0 | 0.0 | 0.00 | 0.00 | 0.00 | 85 | 1007.8 |
| 20260905063117 | 16 | 79 | 0.0 | 0.0 | 0.00 | 0.00 | 0.00 | 84 | 1007.8 |
| 20260905062549 | 16 | 77 | 0.0 | 0.0 | 0.00 | 0.00 | 0.00 | 84 | 1007.7 |
| 20260905062040 | 16 | 77 | 0.0 | 0.0 | 0.00 | 0.00 | 0.00 | 84 | 1007.7 |
| 20260905061601 | 16 | 76 | 0.0 | 0.0 | 0.00 | 0.00 | 0.00 | 84 | 1007.8 |
| 20260905061039 | 17 | 76 | 0.0 | 0.0 | 0.00 | 0.00 | 0.00 | 83 | 1007.7 |
| 20260905060538 | 17 | 77 | 0.0 | 0.0 | 0.00 | 0.00 | 0.00 | 82 | 1007.6 |
| 20260905060038 | 17 | 76 | 0.0 | 0.0 | 0.00 | 0.00 | 0.00 | 82 | 1007.8 |
| 20260905055519 | 17 | 77 | 0.0 | 0.0 | 0.00 | 0.00 | 0.00 | 82 | 1007.8 |
| 20260905055019 | 17 | 117 | 0.0 | 0.0 | 0.00 | 0.05 | 0.00 | 82 | 1007.9 |
| 20260905054520 | 17 | 117 | 0.0 | 0.0 | 0.00 | 0.05 | 0.00 | 81 | 1007.8 |
| 20260905054018 | 17 | 117 | 0.0 | 0.0 | 0.00 | 0.05 | 0.00 | 81 | 1007.8 |
| 20260905053518 | 17 | 117 | 0.0 | 0.0 | 0.00 | 0.05 | 0.00 | 80 | 1007.8 |
| 20260905053021 | 17 | 117 | 0.0 | 0.0 | 0.00 | 0.05 | 0.00 | 79 | 1007.9 |
| 20260905052501 | 17 | 117 | 0.0 | 0.0 | 0.00 | 0.05 | 0.00 | 79 | 1007.8 |
| 20260905052002 | 17 | 77 | 0.0 | 0.0 | 0.00 | 0.05 | 0.00 | 79 | 1007.8 |
| 20260905051601 | 17 | 77 | 0.0 | 0.0 | 0.00 | 0.05 | 0.00 | 78 | 1007.8 |
| 20260905051059 | 17 | 77 | 0.0 | 0.0 | 0.00 | 0.05 | 0.00 | 78 | 1007.9 |
| 20260905050600 | 18 | 77 | 0.0 | 0.0 | 0.00 | 0.05 | 0.00 | 77 | 1007.9 |
| 20260905050059 | 18 | 77 | 0.0 | 0.0 | 0.00 | 0.05 | 0.00 | 76 | 1007.8 |
| 20260905045539 | 18 | 77 | 0.0 | 0.0 | 0.00 | 0.05 | 0.00 | 76 | 1007.9 |
| 20260905045039 | 18 | 77 | 0.0 | 0.0 | 0.00 | 0.05 | 0.00 | 75 | 1007.8 |
| 20260905044539 | 18 | 84 | 0.0 | 0.0 | 0.00 | 0.05 | 0.00 | 75 | 1007.8 |
| 20260905044042 | 18 | 84 | 0.0 | 0.0 | 0.00 | 0.05 | 0.00 | 75 | 1007.8 |
| 20260905043538 | 18 | 83 | 0.0 | 0.0 | 0.00 | 0.05 | 0.00 | 74 | 1007.8 |
| 20260905043104 | 18 | 84 | 0.0 | 0.0 | 0.00 | 0.05 | 0.00 | 74 | 1007.8 |
| 20260905042524 | 18 | 84 | 0.0 | 0.0 | 0.00 | 0.05 | 0.00 | 74 | 1007.8 |
| 20260905042021 | 18 | 83 | 0.0 | 0.0 | 0.00 | 0.05 | 0.00 | 74 | 1007.8 |
| 20260905041518 | 18 | 68 | 0.0 | 1.6 | 0.00 | 0.05 | 0.00 | 73 | 1007.8 |
| 20260905041018 | 18 | 69 | 0.0 | 1.6 | 0.00 | 0.05 | 0.00 | 73 | 1007.7 |
| 20260905040517 | 18 | 51 | 0.0 | 1.6 | 0.00 | 0.05 | 0.00 | 72 | 1007.8 |
| 20260905040020 | 18 | 62 | 0.0 | 1.6 | 0.00 | 0.05 | 0.00 | 72 | 1007.7 |
| 20260905035558 | 18 | 70 | 0.0 | 1.6 | 0.00 | 0.05 | 0.00 | 71 | 1007.7 |
| 20260905035058 | 18 | 46 | 0.0 | 1.6 | 0.00 | 0.05 | 0.00 | 70 | 1007.5 |
| 20260905034600 | 18 | 64 | 0.0 | 1.6 | 0.00 | 0.13 | 0.00 | 70 | 1007.4 |
| 20260905034059 | 18 | 108 | 0.0 | 1.6 | 0.00 | 0.13 | 0.00 | 71 | 1007.5 |
| 20260905033557 | 18 | 68 | 0.0 | 1.6 | 0.00 | 0.13 | 0.00 | 71 | 1007.4 |
| 20260905033100 | 18 | 99 | 0.0 | 1.6 | 0.00 | 0.13 | 0.00 | 71 | 1007.4 |
| 20260905032540 | 19 | 68 | 0.0 | 1.6 | 0.00 | 0.13 | 0.00 | 70 | 1007.3 |
| 20260905032039 | 19 | 65 | 0.0 | 1.6 | 0.00 | 0.13 | 0.00 | 70 | 1007.2 |
| 20260905031540 | 19 | 82 | 0.0 | 1.6 | 0.00 | 0.13 | 0.00 | 69 | 1007.2 |
| 20260905031040 | 20 | 60 | 0.0 | 1.6 | 0.00 | 0.13 | 0.00 | 68 | 1007.1 |
| 20260905030539 | 20 | 72 | 0.0 | 1.6 | 0.00 | 0.13 | 0.00 | 68 | 1007.1 |
| 20260905030042 | 20 | 79 | 0.0 | 1.6 | 0.00 | 0.13 | 0.00 | 68 | 1007.0 |
| 20260905025522 | 20 | 16 | 0.0 | 1.6 | 0.00 | 0.13 | 0.00 | 68 | 1006.9 |
| 20260905025021 | 20 | 107 | 0.0 | 0.0 | 0.00 | 0.13 | 0.00 | 68 | 1006.8 |
| 20260905024522 | 20 | 53 | 0.0 | 0.0 | 0.00 | 0.13 | 0.00 | 68 | 1006.8 |
| 20260905024028 | 20 | 70 | 0.0 | 0.0 | 0.00 | 0.13 | 0.00 | 67 | 1006.8 |
| 20260905023521 | 20 | 63 | 0.0 | 0.0 | 0.00 | 0.13 | 0.00 | 66 | 1006.8 |
| 20260905023021 | 20 | 63 | 0.0 | 0.0 | 0.00 | 0.13 | 0.00 | 66 | 1006.5 |
| 20260905022512 | 21 | 91 | 0.0 | 0.0 | 0.00 | 0.13 | 0.00 | 66 | 1006.5 |
| 20260905022011 | 21 | 93 | 0.0 | 0.0 | 0.00 | 0.13 | 0.00 | 65 | 1006.5 |
| 20260905021510 | 21 | 68 | 0.0 | 0.0 | 0.00 | 0.13 | 0.00 | 65 | 1006.5 |
| 20260905021009 | 21 | 60 | 0.0 | 0.0 | 0.00 | 0.13 | 0.00 | 64 | 1006.3 |
| 20260905020509 | 21 | 77 | 0.0 | 0.0 | 0.00 | 0.13 | 0.00 | 64 | 1006.2 |
| 20260905020009 | 21 | 65 | 0.0 | 0.0 | 0.00 | 0.13 | 0.00 | 63 | 1006.2 |
| 20260905015512 | 21 | 75 | 0.0 | 0.0 | 0.00 | 0.13 | 0.00 | 62 | 1006.2 |
| 20260905015009 | 21 | 63 | 0.0 | 0.0 | 0.00 | 0.13 | 0.00 | 61 | 1006.2 |
| 20260905014507 | 22 | 70 | 0.0 | 0.0 | 0.00 | 0.13 | 0.00 | 61 | 1006.1 |
| 20260905014008 | 22 | 56 | 0.0 | 0.0 | 0.00 | 0.13 | 0.00 | 62 | 1006.0 |
| 20260905013508 | 22 | 67 | 0.0 | 0.0 | 0.00 | 0.13 | 0.00 | 60 | 1005.8 |
| 20260905013008 | 22 | 61 | 0.0 | 1.6 | 0.00 | 0.13 | 0.00 | 59 | 1005.7 |
| 20260905012508 | 22 | 70 | 0.0 | 0.0 | 0.00 | 0.13 | 0.00 | 59 | 1005.5 |
| 20260905012008 | 22 | 69 | 0.0 | 0.0 | 0.00 | 0.13 | 0.00 | 59 | 1005.5 |
| 20260905011507 | 22 | 51 | 0.0 | 0.0 | 0.00 | 0.13 | 0.00 | 59 | 1005.4 |
| 20260905011007 | 22 | 76 | 0.0 | 0.0 | 0.00 | 0.13 | 0.00 | 58 | 1005.2 |
| 20260905010508 | 22 | 75 | 0.0 | 0.0 | 0.00 | 0.13 | 0.00 | 57 | 1005.1 |
| 20260905010014 | 23 | 67 | 0.0 | 1.6 | 0.00 | 0.13 | 0.00 | 57 | 1005.0 |
| 20260905005505 | 23 | 63 | 0.0 | 1.6 | 0.00 | 0.13 | 0.00 | 56 | 1004.9 |
| 20260905005006 | 23 | 67 | 0.0 | 1.6 | 0.00 | 0.13 | 0.00 | 55 | 1004.9 |
| 20260905004508 | 23 | 60 | 0.0 | 1.6 | 0.00 | 0.13 | 0.00 | 54 | 1004.9 |
| 20260905004006 | 23 | 70 | 0.0 | 1.6 | 0.00 | 0.13 | 0.00 | 53 | 1004.8 |
| 20260905003505 | 24 | 47 | 0.0 | 1.6 | 0.00 | 0.13 | 0.00 | 51 | 1004.8 |
| 20260905003013 | 24 | 58 | 0.0 | 1.6 | 0.00 | 0.13 | 0.00 | 49 | 1004.7 |
| 20260905002506 | 25 | 75 | 0.0 | 0.0 | 0.00 | 0.13 | 0.00 | 49 | 1004.7 |
| 20260905002051 | 25 | 75 | 0.0 | 0.0 | 0.00 | 0.13 | 0.00 | 48 | 1004.5 |
| 20260905001548 | 25 | 75 | 0.0 | 0.0 | 0.00 | 0.13 | 0.00 | 47 | 1004.5 |
| 20260905001047 | 25 | 75 | 0.0 | 0.0 | 0.00 | 0.13 | 0.00 | 46 | 1004.4 |
| 20260905000547 | 25 | 75 | 0.0 | 0.0 | 0.00 | 0.13 | 0.00 | 44 | 1004.4 |
| 20260905000047 | 26 | 76 | 0.0 | 0.0 | 0.00 | 0.13 | 0.00 | 44 | 1004.4 |
| 20260904235546 | 26 | 82 | 0.0 | 0.0 | 0.00 | 0.13 | 0.00 | 43 | 1004.4 |
| 20260904235028 | 26 | 82 | 0.0 | 0.0 | 0.00 | 0.13 | 0.00 | 44 | 1004.6 |
| 20260904234536 | 26 | 82 | 0.0 | 0.0 | 0.00 | 0.13 | 0.00 | 43 | 1004.5 |
| 20260904234030 | 26 | 143 | 0.0 | 1.6 | 0.00 | 0.13 | 0.00 | 44 | 1004.6 |
| 20260904233530 | 26 | 169 | 0.0 | 1.6 | 0.00 | 0.13 | 0.00 | 45 | 1004.6 |
| 20260904233027 | 26 | 152 | 0.0 | 1.6 | 0.00 | 0.13 | 0.00 | 45 | 1004.6 |
| 20260904232527 | 26 | 160 | 0.0 | 1.6 | 0.00 | 0.13 | 0.00 | 48 | 1004.7 |
| 20260904232011 | 26 | 138 | 0.0 | 1.6 | 0.00 | 0.13 | 0.00 | 49 | 1004.7 |
| 20260904231507 | 25 | 156 | 0.0 | 1.6 | 0.00 | 0.13 | 0.00 | 52 | 1004.7 |
| 20260904231007 | 25 | 167 | 0.0 | 1.6 | 0.00 | 0.13 | 0.00 | 54 | 1004.7 |
| 20260904230508 | 25 | 232 | 0.0 | 0.0 | 0.00 | 0.13 | 0.00 | 53 | 1004.8 |
| 20260904230008 | 25 | 191 | 0.0 | 1.6 | 0.00 | 0.13 | 0.00 | 53 | 1004.9 |
| 20260904225507 | 24 | 160 | 0.0 | 1.6 | 0.00 | 0.13 | 0.00 | 56 | 1005.0 |
| 20260904225047 | 24 | 219 | 0.0 | 1.6 | 0.00 | 0.13 | 0.00 | 57 | 1005.0 |
| 20260904224553 | 23 | 172 | 0.0 | 1.6 | 0.00 | 0.13 | 0.00 | 57 | 1005.0 |
| 20260904224051 | 23 | 207 | 0.0 | 1.6 | 0.00 | 0.13 | 0.00 | 56 | 1004.9 |
| 20260904223549 | 24 | 169 | 0.0 | 1.6 | 0.00 | 0.13 | 0.00 | 56 | 1005.0 |
| 20260904223045 | 24 | 242 | 0.0 | 1.6 | 0.00 | 0.13 | 0.00 | 56 | 1005.1 |
| 20260904222545 | 24 | 225 | 0.0 | 1.6 | 0.00 | 0.13 | 0.00 | 56 | 1005.2 |
| 20260904222027 | 24 | 166 | 0.0 | 1.6 | 0.00 | 0.13 | 0.00 | 55 | 1005.2 |
| 20260904221528 | 24 | 228 | 0.0 | 1.6 | 0.00 | 0.13 | 0.00 | 55 | 1005.3 |
| 20260904221026 | 25 | 226 | 0.0 | 4.8 | 0.00 | 0.13 | 0.00 | 54 | 1005.3 |
| 20260904220529 | 24 | 163 | 0.0 | 4.8 | 0.00 | 0.13 | 0.00 | 57 | 1005.3 |
| 20260904220039 | 24 | 246 | 0.0 | 1.6 | 0.00 | 0.13 | 0.00 | 54 | 1005.4 |
| 20260904215526 | 25 | 218 | 0.0 | 4.8 | 0.00 | 0.13 | 0.00 | 55 | 1005.3 |
| 20260904215008 | 25 | 201 | 0.0 | 4.8 | 0.00 | 0.33 | 0.00 | 55 | 1005.3 |
| 20260904214514 | 26 | 159 | 0.0 | 9.7 | 0.00 | 0.33 | 0.00 | 55 | 1005.4 |
| 20260904214007 | 26 | 226 | 0.0 | 9.7 | 0.00 | 0.33 | 0.00 | 54 | 1005.5 |
| 20260904213507 | 26 | 39 | 0.0 | 8.0 | 0.00 | 0.33 | 0.00 | 51 | 1005.6 |
| 20260904213006 | 26 | 65 | 0.0 | 8.0 | 0.00 | 0.33 | 0.00 | 50 | 1005.7 |
| 20260904212505 | 26 | 56 | 0.0 | 0.0 | 0.00 | 0.33 | 0.00 | 46 | 1005.6 |
| 20260904212047 | 25 | 57 | 0.0 | 0.0 | 0.00 | 0.33 | 0.00 | 49 | 1005.7 |
| 20260904211604 | 25 | 56 | 0.0 | 0.0 | 0.00 | 0.33 | 0.00 | 49 | 1005.7 |
| 20260904211048 | 26 | 67 | 0.0 | 0.0 | 0.00 | 0.33 | 0.00 | 49 | 1005.6 |
| 20260904210545 | 26 | 141 | 0.0 | 0.0 | 0.00 | 0.33 | 0.00 | 57 | 1005.6 |
| 20260904210048 | 26 | 141 | 0.0 | 0.0 | 0.00 | 0.33 | 0.00 | 53 | 1005.7 |
| 20260904205545 | 26 | 183 | 0.0 | 1.6 | 0.00 | 0.33 | 0.00 | 52 | 1005.8 |
| 20260904205036 | 26 | 134 | 0.0 | 1.6 | 0.00 | 0.33 | 0.00 | 54 | 1006.0 |
| 20260904204533 | 26 | 72 | 0.0 | 0.0 | 0.00 | 0.33 | 0.00 | 50 | 1006.1 |
| 20260904204032 | 26 | 359 | 0.0 | 0.0 | 0.00 | 0.33 | 0.00 | 50 | 1006.0 |
| 20260904203531 | 27 | 348 | 0.0 | 0.0 | 0.00 | 0.33 | 0.00 | 53 | 1006.0 |
| 20260904203043 | 27 | 69 | 0.0 | 0.0 | 0.00 | 0.33 | 0.00 | 49 | 1006.2 |
| 20260904202529 | 27 | 39 | 0.0 | 1.6 | 0.00 | 0.33 | 0.00 | 51 | 1006.3 |
| 20260904202028 | 27 | 70 | 0.0 | 1.6 | 0.00 | 0.33 | 0.00 | 50 | 1006.3 |
| 20260904201527 | 27 | 153 | 0.0 | 1.6 | 0.00 | 0.33 | 0.00 | 51 | 1006.5 |
| 20260904201026 | 26 | 233 | 0.0 | 1.6 | 0.00 | 0.33 | 0.00 | 53 | 1006.6 |
| 20260904200526 | 26 | 350 | 0.0 | 0.0 | 0.00 | 0.33 | 0.00 | 52 | 1006.7 |
| 20260904200025 | 26 | 295 | 0.0 | 1.6 | 0.00 | 0.33 | 0.00 | 51 | 1006.8 |
| 20260904195524 | 26 | 315 | 0.0 | 1.6 | 0.00 | 0.33 | 0.00 | 51 | 1006.9 |
| 20260904195024 | 27 | 67 | 0.0 | 1.6 | 0.00 | 0.33 | 0.00 | 49 | 1006.9 |
| 20260904194524 | 27 | 340 | 0.0 | 1.6 | 0.00 | 0.33 | 0.00 | 53 | 1007.0 |
| 20260904194023 | 26 | 121 | 0.0 | 1.6 | 0.00 | 0.33 | 0.00 | 52 | 1007.0 |
| 20260904193522 | 26 | 111 | 0.0 | 0.0 | 0.00 | 0.33 | 0.00 | 56 | 1007.1 |
| 20260904193019 | 26 | 34 | 0.0 | 1.6 | 0.00 | 0.33 | 0.00 | 54 | 1007.2 |
| 20260904192518 | 26 | 211 | 0.0 | 1.6 | 0.00 | 0.33 | 0.00 | 54 | 1007.2 |
| 20260904192016 | 26 | 260 | 0.0 | 1.6 | 0.00 | 0.33 | 0.00 | 60 | 1007.3 |
| 20260904191515 | 25 | 250 | 0.0 | 1.6 | 0.00 | 0.33 | 0.00 | 54 | 1007.4 |
| 20260904191015 | 25 | 264 | 0.0 | 1.6 | 0.00 | 0.33 | 0.00 | 58 | 1007.5 |
| 20260904190513 | 25 | 243 | 0.0 | 0.0 | 0.00 | 0.33 | 0.00 | 57 | 1007.6 |
| 20260904190012 | 25 | 226 | 0.0 | 1.6 | 0.00 | 0.33 | 0.00 | 61 | 1007.7 |
| 20260904185512 | 25 | 63 | 0.0 | 1.6 | 0.00 | 0.33 | 0.00 | 56 | 1007.8 |
| 20260904185112 | 25 | 34 | 0.0 | 1.6 | 0.00 | 0.33 | 0.00 | 57 | 1007.8 |
| 20260904184600 | 25 | 294 | 0.0 | 0.0 | 0.00 | 0.33 | 0.00 | 60 | 1007.9 |
| 20260904184057 | 25 | 313 | 0.0 | 1.6 | 0.00 | 0.33 | 0.00 | 59 | 1008.0 |
| 20260904183600 | 25 | 250 | 0.0 | 1.6 | 0.00 | 0.33 | 0.00 | 58 | 1008.1 |
| 20260904183116 | 25 | 255 | 0.0 | 0.0 | 0.00 | 0.33 | 0.00 | 58 | 1008.2 |
| 20260904182554 | 25 | 258 | 0.0 | 0.0 | 0.00 | 0.33 | 0.00 | 62 | 1008.2 |
| 20260904182054 | 24 | 256 | 0.0 | 0.0 | 0.00 | 0.33 | 0.00 | 55 | 1008.3 |
| 20260904181552 | 24 | 246 | 0.0 | 0.0 | 0.00 | 0.33 | 0.00 | 58 | 1008.4 |
| 20260904181053 | 24 | 270 | 0.0 | 0.0 | 0.00 | 0.33 | 0.00 | 62 | 1008.6 |
| 20260904180551 | 24 | 79 | 0.0 | 0.0 | 0.00 | 0.33 | 0.00 | 63 | 1008.6 |
| 20260904180112 | 23 | 321 | 0.0 | 0.0 | 0.00 | 0.33 | 0.00 | 63 | 1008.7 |
| 20260904175547 | 23 | 99 | 0.0 | 0.0 | 0.00 | 0.33 | 0.00 | 61 | 1008.8 |
| 20260904175046 | 23 | 46 | 0.0 | 0.0 | 0.00 | 0.33 | 0.00 | 69 | 1008.9 |
| 20260904174555 | 23 | 34 | 0.0 | 0.0 | 0.00 | 0.33 | 0.00 | 66 | 1008.9 |
| 20260904174043 | 23 | 51 | 0.0 | 0.0 | 0.00 | 0.33 | 0.00 | 64 | 1009.0 |
| 20260904173542 | 22 | 34 | 0.0 | 0.0 | 0.00 | 0.33 | 0.00 | 69 | 1009.1 |
| 20260904173044 | 22 | 298 | 0.0 | 0.0 | 0.00 | 0.33 | 0.00 | 69 | 1009.2 |
| 20260904172543 | 22 | 342 | 0.0 | 0.0 | 0.00 | 0.33 | 0.00 | 69 | 1009.3 |
| 20260904172039 | 22 | 239 | 0.0 | 0.0 | 0.00 | 0.33 | 0.00 | 71 | 1009.4 |
| 20260904171540 | 22 | 328 | 0.0 | 0.0 | 0.00 | 0.33 | 0.00 | 68 | 1009.4 |
| 20260904171038 | 22 | 257 | 0.0 | 0.0 | 0.00 | 0.33 | 0.00 | 72 | 1009.5 |
| 20260904170537 | 22 | 257 | 0.0 | 0.0 | 0.00 | 0.33 | 0.00 | 72 | 1009.5 |
| 20260904170044 | 21 | 250 | 0.0 | 1.6 | 0.00 | 0.33 | 0.00 | 73 | 1009.6 |
| 20260904165533 | 21 | 248 | 0.0 | 1.6 | 0.00 | 0.33 | 0.00 | 74 | 1009.7 |
| 20260904165032 | 21 | 262 | 0.0 | 1.6 | 0.00 | 0.33 | 0.00 | 75 | 1009.8 |
| 20260904164518 | 21 | 256 | 0.0 | 1.6 | 0.00 | 0.33 | 0.00 | 74 | 1009.8 |
| 20260904164017 | 21 | 264 | 0.0 | 0.0 | 0.00 | 0.33 | 0.00 | 75 | 1009.8 |
| 20260904163516 | 20 | 264 | 0.0 | 0.0 | 0.00 | 0.33 | 0.00 | 76 | 1009.9 |
| 20260904163015 | 20 | 264 | 0.0 | 0.0 | 0.00 | 0.33 | 0.00 | 77 | 1010.0 |
| 20260904162517 | 20 | 264 | 0.0 | 0.0 | 0.00 | 0.33 | 0.00 | 76 | 1010.1 |
| 20260904162012 | 19 | 264 | 0.0 | 0.0 | 0.00 | 0.33 | 0.00 | 78 | 1010.2 |
| 20260904161511 | 19 | 266 | 0.0 | 0.0 | 0.00 | 0.33 | 0.00 | 79 | 1010.3 |
| 20260904161011 | 18 | 260 | 0.0 | 1.6 | 0.00 | 0.33 | 0.00 | 81 | 1010.3 |
| 20260904160508 | 18 | 236 | 0.0 | 1.6 | 0.00 | 0.33 | 0.00 | 80 | 1010.4 |
| 20260904160007 | 18 | 255 | 0.0 | 0.0 | 0.00 | 0.33 | 0.00 | 82 | 1010.4 |
| 20260904155505 | 18 | 248 | 0.0 | 0.0 | 0.00 | 0.33 | 0.00 | 84 | 1010.4 |
| 20260904155004 | 18 | 285 | 0.0 | 0.0 | 0.00 | 0.33 | 0.33 | 86 | 1010.5 |
| 20260904154503 | 18 | 285 | 0.0 | 0.0 | 0.00 | 0.33 | 0.33 | 85 | 1010.5 |
| 20260904154004 | 18 | 288 | 0.0 | 0.0 | 0.00 | 0.33 | 0.33 | 87 | 1010.5 |
| 20260904153505 | 17 | 256 | 0.0 | 1.6 | 0.00 | 0.33 | 0.33 | 89 | 1010.5 |
| 20260904153003 | 17 | 253 | 0.0 | 1.6 | 0.00 | 0.33 | 0.33 | 87 | 1010.7 |
| 20260904152504 | 17 | 250 | 0.0 | 1.6 | 0.00 | 0.33 | 0.33 | 88 | 1010.6 |
| 20260904152003 | 17 | 257 | 0.0 | 1.6 | 0.00 | 0.33 | 0.33 | 88 | 1010.6 |
| 20260904151503 | 17 | 250 | 0.0 | 1.6 | 0.00 | 0.33 | 0.33 | 88 | 1010.5 |
| 20260904151003 | 17 | 254 | 0.0 | 0.0 | 0.00 | 0.33 | 0.33 | 88 | 1010.5 |
| 20260904150503 | 17 | 255 | 0.0 | 1.6 | 0.00 | 0.33 | 0.33 | 88 | 1010.5 |
| 20260904150008 | 17 | 250 | 0.0 | 1.6 | 0.00 | 0.33 | 0.33 | 88 | 1010.5 |
| 20260904145503 | 16 | 259 | 0.0 | 0.0 | 0.00 | 0.33 | 0.33 | 89 | 1010.4 |
| 20260904145002 | 16 | 256 | 0.0 | 0.0 | 0.00 | 0.33 | 0.33 | 89 | 1010.4 |
| 20260904144558 | 16 | 256 | 0.0 | 0.0 | 0.00 | 0.33 | 0.33 | 90 | 1010.3 |
| 20260904144044 | 16 | 256 | 0.0 | 0.0 | 0.00 | 0.33 | 0.33 | 89 | 1010.2 |
| 20260904143545 | 16 | 256 | 0.0 | 0.0 | 0.00 | 0.33 | 0.33 | 90 | 1010.2 |
| 20260904143051 | 16 | 253 | 0.0 | 0.0 | 0.00 | 0.33 | 0.33 | 89 | 1010.1 |
| 20260904142544 | 16 | 72 | 0.0 | 0.0 | 0.00 | 0.33 | 0.33 | 89 | 1010.1 |
| 20260904142045 | 16 | 72 | 0.0 | 0.0 | 0.00 | 0.33 | 0.33 | 89 | 1010.2 |
| 20260904141534 | 16 | 72 | 0.0 | 0.0 | 0.00 | 0.33 | 0.33 | 89 | 1010.1 |
| 20260904141026 | 16 | 72 | 0.0 | 0.0 | 0.00 | 0.33 | 0.33 | 91 | 1010.1 |
| 20260904140526 | 16 | 72 | 0.0 | 0.0 | 0.00 | 0.33 | 0.33 | 91 | 1010.0 |
| 20260904140045 | 15 | 72 | 0.0 | 0.0 | 0.00 | 0.33 | 0.33 | 91 | 1009.9 |
| 20260904135526 | 15 | 72 | 0.0 | 0.0 | 0.00 | 0.33 | 0.33 | 93 | 1009.9 |
| 20260904135026 | 15 | 72 | 0.0 | 0.0 | 0.00 | 0.33 | 0.33 | 95 | 1009.8 |
| 20260904134508 | 15 | 72 | 0.0 | 0.0 | 0.00 | 0.33 | 0.33 | 97 | 1009.8 |
| 20260904134008 | 13 | 72 | 0.0 | 0.0 | 0.00 | 0.33 | 0.33 | 97 | 1009.9 |
| 20260904133508 | 13 | 72 | 0.0 | 0.0 | 0.00 | 0.33 | 0.33 | 97 | 1009.8 |
| 20260904133011 | 13 | 72 | 0.0 | 0.0 | 0.00 | 0.33 | 0.33 | 96 | 1009.8 |
| 20260904132510 | 13 | 72 | 0.0 | 0.0 | 0.00 | 0.33 | 0.33 | 95 | 1009.8 |
| 20260904132010 | -17 | 0.0 | 0.0 | 0.00 | 0.33 | 0.33 | 1009.7 | ||
| 20260904131546 | -17 | 0.0 | 0.0 | 0.00 | 0.33 | 0.33 | 1009.6 | ||
| 20260904131046 | -17 | 0.0 | 0.0 | 0.00 | 0.33 | 0.33 | 1009.5 | ||
| 20260904130544 | -17 | 0.0 | 0.0 | 0.00 | 0.33 | 0.33 | 1009.4 | ||
| 20260904130044 | -17 | 0.0 | 0.0 | 0.00 | 0.33 | 0.33 | 1009.4 | ||
| 20260904125541 | -17 | 0.0 | 0.0 | 0.00 | 0.33 | 0.33 | 1009.3 | ||
| 20260904125040 | -17 | 0.0 | 0.0 | 0.00 | 0.33 | 0.33 | 1009.2 | ||
| 20260904124522 | -17 | 0.0 | 0.0 | 0.00 | 0.33 | 0.33 | 1009.2 | ||
| 20260904124019 | -17 | 0.0 | 0.0 | 0.00 | 0.33 | 0.33 | 1009.3 | ||
| 20260904123518 | -17 | 0.0 | 0.0 | 0.00 | 0.33 | 0.33 | 1009.3 | ||
| 20260904123017 | -17 | 0.0 | 0.0 | 0.00 | 0.33 | 0.33 | 1009.3 | ||
| 20260904122519 | -17 | 0.0 | 0.0 | 0.00 | 0.33 | 0.33 | 1009.3 | ||
| 20260904122018 | -17 | 0.0 | 0.0 | 0.00 | 0.33 | 0.33 | 1009.2 | ||
| 20260904121617 | -17 | 0.0 | 0.0 | 0.00 | 0.33 | 0.33 | 1009.3 | ||
| 20260904121058 | -17 | 0.0 | 0.0 | 0.00 | 0.33 | 0.33 | 1009.2 | ||
| 20260904120558 | -17 | 0.0 | 0.0 | 0.00 | 0.33 | 0.33 | 1009.2 | ||
| 20260904120107 | -17 | 0.0 | 0.0 | 0.00 | 0.33 | 0.33 | 1009.2 | ||
| 20260904115558 | -17 | 0.0 | 0.0 | 0.00 | 0.33 | 0.33 | 1009.2 | ||
| 20260904115100 | -17 | 0.0 | 0.0 | 0.00 | 0.33 | 0.33 | 1009.3 | ||
| 20260904114601 | -17 | 0.0 | 0.0 | 0.00 | 0.33 | 0.33 | 1009.3 | ||
| 20260904114040 | -17 | 0.0 | 0.0 | 0.00 | 0.33 | 0.33 | 1009.1 | ||
| 20260904113540 | -17 | 0.0 | 0.0 | 0.00 | 0.33 | 0.33 | 1009.2 | ||
| 20260904113038 | -17 | 0.0 | 0.0 | 0.00 | 0.33 | 0.33 | 1009.3 | ||
| 20260904112536 | -17 | 0.0 | 0.0 | 0.00 | 0.33 | 0.33 | 1009.4 | ||
| 20260904112035 | -17 | 0.0 | 0.0 | 0.00 | 0.33 | 0.33 | 1009.2 | ||
| 20260904111534 | -17 | 0.0 | 0.0 | 0.00 | 0.33 | 0.33 | 1009.2 | ||
| 20260904111016 | -17 | 0.0 | 0.0 | 0.00 | 0.33 | 0.33 | 1009.1 | ||
| 20260904110513 | -17 | 0.0 | 0.0 | 0.00 | 0.33 | 0.33 | 1009.2 | ||
| 20260904110012 | -17 | 0.0 | 0.0 | 0.00 | 0.33 | 0.33 | 1009.2 | ||
| 20260904105512 | -17 | 0.0 | 0.0 | 0.00 | 0.33 | 0.33 | 1009.1 | ||
| 20260904105009 | -17 | 0.0 | 0.0 | 0.00 | 0.33 | 0.33 | 1009.0 | ||
| 20260904104508 | -17 | 0.0 | 0.0 | 0.00 | 0.33 | 0.33 | 1008.9 | ||
| 20260904104049 | -17 | 0.0 | 0.0 | 0.00 | 0.33 | 0.33 | 1008.9 | ||
| 20260904103548 | -17 | 0.0 | 0.0 | 0.00 | 0.33 | 0.33 | 1009.1 | ||
| 20260904103046 | -17 | 0.0 | 0.0 | 0.00 | 0.33 | 0.33 | 1009.0 | ||
| 20260904102545 | -17 | 0.0 | 0.0 | 0.00 | 0.33 | 0.33 | 1008.9 | ||
| 20260904102048 | -17 | 0.0 | 0.0 | 0.00 | 0.33 | 0.33 | 1008.8 | ||
| 20260904101542 | -17 | 0.0 | 0.0 | 0.00 | 0.33 | 0.33 | 1008.8 | ||
| 20260904101023 | -17 | 0.0 | 0.0 | 0.00 | 0.33 | 0.33 | 1008.9 | ||
| 20260904100523 | -17 | 0.0 | 0.0 | 0.00 | 0.33 | 0.33 | 1008.9 | ||
| 20260904100020 | -17 | 0.0 | 0.0 | 0.00 | 0.33 | 0.33 | 1008.9 | ||
| 20260904095519 | -17 | 0.0 | 0.0 | 0.00 | 0.33 | 0.33 | 1009.0 | ||
| 20260904095018 | -17 | 0.0 | 0.0 | 0.00 | 0.33 | 0.33 | 1009.1 | ||
| 20260904094531 | 13 | 101 | 0.0 | 1.6 | 0.00 | 0.33 | 0.33 | 96 | 1009.0 |
| 20260904094058 | 13 | 101 | 0.0 | 1.6 | 0.00 | 0.33 | 0.33 | 96 | 1009.1 |
| 20260904093602 | 13 | 101 | 0.0 | 1.6 | 0.00 | 0.33 | 0.33 | 96 | 1008.9 |
| 20260904093058 | 13 | 50 | 0.0 | 1.6 | 0.00 | 0.33 | 0.33 | 97 | 1008.9 |
| 20260904092600 | 13 | 97 | 0.0 | 0.0 | 0.00 | 0.33 | 0.33 | 96 | 1008.9 |
| 20260904092057 | 13 | 94 | 0.0 | 0.0 | 0.00 | 0.33 | 0.33 | 96 | 1008.9 |
| 20260904091557 | 14 | 61 | 0.0 | 3.2 | 0.00 | 0.33 | 0.33 | 96 | 1009.0 |
| 20260904091038 | 14 | 42 | 0.0 | 3.2 | 0.00 | 0.33 | 0.33 | 96 | 1009.0 |
| 20260904090538 | 14 | 59 | 0.0 | 1.6 | 0.00 | 0.33 | 0.33 | 96 | 1009.0 |
| 20260904090039 | 14 | 57 | 0.0 | 0.0 | 0.00 | 0.33 | 0.33 | 96 | 1009.0 |
| 20260904085538 | 14 | 73 | 0.0 | 0.0 | 0.00 | 0.33 | 0.33 | 96 | 1009.0 |
| 20260904085039 | 14 | 73 | 0.0 | 0.0 | 0.00 | 0.33 | 0.33 | 96 | 1009.0 |
| 20260904084538 | 14 | 74 | 0.0 | 0.0 | 0.00 | 0.33 | 0.33 | 96 | 1008.9 |
| 20260904084020 | 14 | 73 | 0.0 | 0.0 | 0.00 | 0.33 | 0.33 | 96 | 1008.9 |
| 20260904083519 | 14 | 72 | 0.0 | 0.0 | 0.00 | 0.33 | 0.33 | 96 | 1008.9 |
| 20260904083019 | 14 | 110 | 0.0 | 0.0 | 0.00 | 0.33 | 0.33 | 96 | 1009.0 |
| 20260904082519 | 14 | 110 | 0.0 | 0.0 | 0.00 | 0.33 | 0.33 | 96 | 1009.0 |
| 20260904082019 | 14 | 110 | 0.0 | 0.0 | 0.00 | 0.33 | 0.33 | 96 | 1008.9 |
| 20260904081519 | 14 | 110 | 0.0 | 0.0 | 0.00 | 0.33 | 0.33 | 96 | 1008.9 |
| 20260904081001 | 14 | 111 | 0.0 | 0.0 | 0.00 | 0.33 | 0.33 | 97 | 1009.0 |
| 20260904080600 | 14 | 111 | 0.0 | 0.0 | 0.00 | 0.33 | 0.33 | 97 | 1009.0 |
| 20260904080501 | 14 | 111 | 0.0 | 0.0 | 0.00 | 0.33 | 0.33 | 97 | 1009.0 |
| 20260904080106 | 14 | 60 | 0.0 | 0.0 | 0.00 | 0.33 | 0.33 | 96 | 1008.9 |
| 20260904075601 | 15 | 60 | 0.0 | 0.0 | 0.00 | 0.33 | 0.33 | 97 | 1008.8 |
| 20260904075059 | 14 | 70 | 0.0 | 0.0 | 0.00 | 0.33 | 0.33 | 96 | 1008.8 |
| 20260904074607 | 14 | 48 | 0.0 | 0.0 | 0.00 | 0.33 | 0.33 | 96 | 1008.8 |
| 20260904074042 | 14 | 48 | 0.0 | 0.0 | 0.00 | 0.33 | 0.33 | 96 | 1009.0 |
| 20260904073542 | 14 | 48 | 0.0 | 0.0 | 0.00 | 0.33 | 0.33 | 96 | 1009.0 |
| 20260904073051 | 15 | 48 | 0.0 | 0.0 | 0.00 | 0.33 | 0.33 | 96 | 1009.1 |
| 20260904072542 | 15 | 48 | 0.0 | 0.0 | 0.00 | 0.33 | 0.33 | 96 | 1009.3 |